Regional Weather Roundup
Issued by NWS Newport/Morehead, NC

Current Version | Previous Version | Graphics & Text | Print | Product List | Glossary Off
Versions: 1 2 3 4 5 6 7 8 9 10 11 12 13 14 15 16 17 18 19 20 21 22 23 24 25 26 27 28 29 30 31 32 33 34 35 36 37 38 39 40 41 42 43 44 45 46 47 48 49 50

670
ASUS42 KMHX 242113
RWRMHX
WEATHER ROUNDUP FOR EASTERN NORTH CAROLINA
NATIONAL WEATHER SERVICE NEWPORT/MOREHEAD CITY NC
500 PM EDT SAT SEP 24 2016

NOTE: "FAIR" INDICATES FEW OR NO CLOUDS BELOW 12,000 FEET
WITH NO SIGNIFICANT WEATHER AND/OR OBSTRUCTIONS TO VISIBILITY

NCZ015>017-031-032-045>047-102-103-242200-
NORTH COAST

CITY           SKY/WX    TMP DP  RH WIND       PRES   REMARKS
EDENTON        MOSUNNY   88  67  49 SW6       30.00S
ELIZABETH CITY SUNNY     83  71  67 NE13      30.01R
KITTY HAWK     NOT AVBL
MANTEO         SUNNY     82  67  61 E5        30.01R

$$

NCZ045>047-081-094-103-104-242200-
CENTRAL COAST

CITY           SKY/WX    TMP DP  RH WIND       PRES   REMARKS
FRISCO         SUNNY     83  69  62 NE5       30.01S

$$

NCZ095-097-098-100-101-242200-
SOUTHERN COAST

CITY           SKY/WX    TMP DP  RH WIND       PRES   REMARKS
BEAUFORT       SUNNY     86  70  58 VRB3      30.00S
CEDAR ISLAND   NOT AVBL
JACKSONVILLE   SUNNY     87  65  47 NE3       30.00R
PINEY ISLAND   CLEAR    N/A N/A N/A E3        30.00S
WILMINGTON     SUNNY     88  65  46 VRB3      30.00S


$$

NCZ011>013-027>030-043-044-078>080-089-090>093-098-242200-
COASTAL PLAIN

CITY           SKY/WX    TMP DP  RH WIND       PRES   REMARKS
AHOSKIE        SUNNY     85  69  58 N3        30.00S
CLINTON        SUNNY     89  68  50 CALM      30.01S
ELIZABETHTOWN  SUNNY     88  65  45 CALM      30.01S
GOLDSBORO      SUNNY     89  62  40 N6        29.99S
GREENVILLE     SUNNY     88  66  48 N5        30.02F
HAVELOCK       SUNNY     86  68  54 NE6       30.01S
KENANSVILLE    SUNNY     88  64  45 NE3       30.01S
KINSTON        SUNNY     88  66  48 CALM      30.01S
NEW BERN       SUNNY     86  66  51 N7        30.02R
RICHLANDS      SUNNY     87  66  49 CALM      30.01S
ROCKY MOUNT    MOSUNNY   88  66  48 W3        30.00F
WASHINGTON     SUNNY     86  69  56 NW3       30.01R
WHITEVILLE     SUNNY     87  66  48 CALM      30.00S

$$

AMZ130-135-150-152-154-156-158-170-250-252-270-ANZ085-086-088-633-658-670-242200-
MARINE OBSERVATIONS

STATION/POSITION TIME  TEMP    WIND        PRES    WAVE   SWELL
                       AIR SEA DIR/SP/G            HT/PER HT/PER
                 (UTC) (F)     (DEG/KT/KT) (MB)    (FT/S) (FT/S)
CHESAPEAKE LIGHT NOT AVBL
64 E VA BEACH    2050   74 76   10/ 16/ 17 1015.7    4/11   3/11
DUCK             2048   78 79  360/  8/  9 1015.7
2 E DUCK         2041      78                N/A     3/10   2/11
OREGON INLET     2048   80 81   50/  4/  6 1015.9
13E OREGON INLT  2100      78                N/A     4/12   3/12
HATTERAS CG      2048   81 82   30/  5/  7 1015.8
DIAMOND BUOY     2050   80 81   20/ 10/ 10 1015.9    5/11   5/11
CAPE LOOKOUT     2100   80      60/  9/ 11 1015.8
BEAUFORT LAB     2048   81 80  130/  6/  8 1015.4
30 SE NEW RVR IN 2008   80 82   50/  4/  6 1016.0
30 SE NEW RVR IN 2055      82                N/A     4/11   2/11
27 SE WRIGHTSVLE 2008   81 82   10/  6/  8 1016.3
5 SE WRIGHTSVLE  2008   80 82  110/  6/  8 1017.0
225 S CAPE HAT   2050   83 83  300/  8/ 10 1014.5    4/10   3/10
41 SE CHARLESTON 2050   81 83   40/ 12/ 14 1015.0    3/11   3/11

$$




USA.gov is the U.S. government's official web portal to all federal, state and local government web resources and services.